Regional Weather Roundup
Issued by NWS

Home | Current Version | Previous Version | Text Only | Print | Product List | Glossary Off
Versions: 1 2 3 4 5 6 7 8 9 10 11 12 13 14 15 16 17 18 19 20 21 22 23 24 25 26 27 28 29 30 31 32 33 34 35 36 37 38 39 40 41 42 43 44 45 46 47 48 49 50

000
ASUS43 KBIS 280710
RWRND

NORTH DAKOTA REGIONAL WEATHER ROUNDUP
NATIONAL WEATHER SERVICE BISMARCK ND
200 AM CDT THU APR 28 2016

NOTE: "FAIR" INDICATES FEW OR NO CLOUDS BELOW 12,000 FEET WITH NO
SIGNIFICANT WEATHER AND/OR OBSTRUCTIONS TO VISIBILITY.


NDZ001>003-009>011-017-280800-
NORTHWEST NORTH DAKOTA

CITY           SKY/WX    TMP DP  RH WIND       PRES   REMARKS
WILLISTON      CLOUDY    43  25  49 E9        30.08S
MINOT          CLOUDY    41  25  53 N9        30.06S
MINOT AFB      CLOUDY    40  23  51 NE9       30.06F
$$

NDZ018>021-031>035-040>046-280800-
SOUTHWEST NORTH DAKOTA

CITY           SKY/WX    TMP DP  RH WIND       PRES   REMARKS
BISMARCK       CLOUDY    41  36  82 W3        30.00S
DICKINSON      CLOUDY    37  28  70 NE8       29.98R
GARRISON         N/A     42  28  57 NE8       30.02S
HETTINGER ARPT LGT SNOW  33  31  92 N3        30.00S FOG
$$

NDZ004>008-012>016-024-026-027-054-280800-
NORTHEAST NORTH DAKOTA

CITY           SKY/WX    TMP DP  RH WIND       PRES   REMARKS
GRAND FORKS    CLOUDY    44  24  45 NE10      30.04R
GRND FRKS AFB  CLOUDY    44  22  41 E9        30.04S
DEVILS LAKE    CLOUDY    43  22  43 NE13      30.05S
$$

NDZ022-023-025-028>030-036>039-047>053-280800-
SOUTHEAST NORTH DAKOTA

CITY           SKY/WX    TMP DP  RH WIND       PRES   REMARKS
FARGO          CLOUDY    46  23  40 NE5       30.00S
JAMESTOWN      CLOUDY    39  35  86 CALM      29.99S
$$





USA.gov is the U.S. government's official web portal to all federal, state and local government web resources and services.